Temp
43 44 45 46 48 49 49 49 50 50 49 49 49 49 49 49 49 49 49 50 49 49 49 50 50 50 51 51 51 51 51 51 51 51 51 50 50 49 48 49 49 50 51 53 54 54 55 55 55 56 57 58 58 58 58 59 59 58 58 58 57 57 56 56 56 56 55 54 54
43 43 45 48 49 49 49 49 49 50 49 49 49 49 49 49 49 49 49 49 50 50 50 50 50 50 51 51 51 50 51 51 51 51 51 50 49 49 49 50 49 50 52 53 54 54 55 55 55 56 57 57 57 57 58 59 59 58 58 58 57 57 57 57 57 56 55 54 54
43 44 46 47 48 48 48 48 49 49 49 49 49 49 49 49 49 50 50 50 50 50 50 50 50 51 51 50 50 50 51 51 51 51 51 51 50 50 50 50 49 50 52 54 54 55 55 55 55 56 57 57 57 57 58 58 59 58 58 58 58 57 57 57 56 55 55 54 54
43 44 46 47 47 47 47 48 48 49 49 49 49 50 50 50 50 50 49 50 49 49 49 50 50 51 51 50 50 50 51 51 51 51 51 51 52 51 50 50 49 50 51 53 54 55 55 55 56 56 57 57 56 57 58 58 58 58 58 58 58 57 57 56 55 55 54 54 53
44 44 45 47 47 46 47 48 48 49 49 50 50 50 50 50 49 49 49 49 49 49 49 50 50 51 51 50 50 50 50 51 51 51 51 50 52 52 52 51 50 50 51 53 54 54 54 55 56 56 56 56 57 57 58 58 58 58 58 58 57 57 56 56 55 54 54 53 53
43 44 45 46 45 45 46 47 47 48 48 48 47 47 47 48 49 49 49 49 49 49 49 50 50 51 51 50 50 50 50 50 50 51 51 51 52 52 51 50 50 51 52 53 54 54 54 55 55 56 56 56 56 57 57 58 58 58 57 57 56 56 56 55 55 54 54 53 52
43 44 44 45 45 45 45 45 46 46 46 46 46 46 46 46 47 47 48 48 48 48 49 50 50 50 50 50 50 50 50 50 50 50 50 50 50 50 50 50 50 51 53 54 54 54 54 55 55 56 56 56 56 56 57 59 58 57 56 56 55 55 55 54 54 54 53 53 52
43 43 44 44 44 44 44 45 46 46 46 47 47 46 46 46 46 47 47 47 47 48 48 49 50 50 50 50 50 49 50 50 50 51 51 51 49 49 50 50 50 52 53 54 54 54 54 55 55 56 56 55 56 56 57 59 58 57 56 55 55 54 54 53 53 53 53 52 52
43 43 44 44 44 44 45 45 46 47 47 47 46 46 46 47 47 47 47 47 48 49 49 49 49 50 50 50 50 50 50 50 51 51 51 50 49 49 49 51 51 52 52 54 54 54 54 55 55 55 55 55 56 56 57 58 57 56 55 54 54 53 53 53 53 53 52 52 51
43 43 43 44 45 45 45 45 46 47 48 48 47 47 47 48 48 48 48 49 49 49 50 50 50 50 50 50 50 51 51 51 51 51 50 49 48 48 49 51 51 52 52 53 54 54 55 55 55 55 55 55 56 56 56 56 56 55 54 54 53 53 52 52 52 52 52 52 51
43 43 43 44 45 45 45 45 46 47 48 48 48 47 47 48 48 48 49 49 50 50 50 50 50 50 50 51 51 51 52 52 51 49 48 47 47 48 49 51 51 51 52 53 54 54 54 55 54 54 55 55 55 55 55 55 54 54 54 53 53 52 52 52 52 52 51 51 50
44 44 44 44 44 45 45 45 45 46 46 47 46 46 46 47 48 49 49 49 49 49 50 50 50 50 50 51 51 52 52 52 50 48 46 45 46 47 49 51 51 52 52 53 53 54 54 54 54 54 54 55 55 55 55 54 53 53 53 53 52 52 52 51 51 51 51 50 49
46 45 45 45 45 45 44 44 44 45 45 46 46 46 47 47 49 49 49 49 49 49 49 50 50 50 50 51 51 52 52 52 51 49 47 46 46 47 49 51 52 52 52 53 53 53 54 54 54 54 54 55 55 55 54 53 53 53 52 52 52 51 51 51 51 50 50 49 48
47 47 46 46 46 46 46 45 45 45 45 46 46 47 47 48 49 49 50 49 49 49 49 49 50 50 51 51 51 52 52 52 52 51 49 47 47 48 50 51 52 52 53 52 53 53 54 54 54 55 55 54 55 54 54 53 53 53 52 52 51 51 51 51 50 49 49 48 48
49 48 48 47 47 48 48 48 47 47 46 47 47 48 48 49 49 50 50 50 51 50 50 50 50 51 51 51 51 51 52 52 52 51 50 48 47 49 51 52 53 53 52 52 53 53 54 54 55 55 55 54 54 54 54 53 53 52 52 52 51 51 51 50 49 49 48 48 47
49 49 49 49 48 49 49 49 49 48 48 48 48 49 49 49 50 50 51 51 51 51 51 51 51 51 51 51 50 50 51 52 51 51 50 48 48 49 51 52 53 53 52 53 53 54 54 55 55 55 54 54 54 53 53 53 52 52 52 52 51 51 50 50 49 48 48 47 46
49 49 50 50 49 49 49 50 49 49 49 49 49 49 50 50 51 51 51 52 52 52 52 52 52 52 52 52 51 51 51 52 51 50 49 48 48 50 51 53 53 53 53 54 54 54 55 55 55 55 54 54 53 53 52 52 52 51 51 51 50 50 49 49 48 48 47 47 46
49 49 50 50 50 50 49 50 49 49 49 49 50 50 51 51 52 52 52 52 52 52 52 52 52 52 52 52 52 52 52 51 50 49 48 47 48 50 52 53 53 53 54 54 54 54 54 54 54 54 53 53 52 52 51 51 50 50 50 49 49 49 48 48 48 47 47 46 46
49 49 50 50 50 50 50 50 49 49 50 50 50 51 51 51 52 52 52 52 52 52 52 52 53 53 52 52 52 52 52 51 50 49 48 48 50 52 53 54 54 54 54 54 54 54 54 53 53 52 52 51 50 50 49 49 48 48 47 47 47 47 47 46 46 46 46 46 45
49 49 50 50 50 50 50 50 50 50 50 50 50 50 51 51 51 51 51 51 52 53 53 52 52 52 52 52 52 52 53 52 51 50 50 50 52 53 54 54 54 54 54 53 53 52 52 51 51 50 49 49 48 47 47 46 46 45 45 45 45 44 44 44 44 44 44 44 43
50 50 50 50 50 50 50 50 50 50 50 49 50 50 51 51 51 51 51 52 53 53 53 53 52 52 52 53 53 53 53 53 53 52 52 53 54 54 54 54 54 53 52 52 51 50 50 49 49 48 48 47 47 46 45 45 44 44 44 44 43 43 43 43 43 43 42 42 42
50 50 50 51 51 51 51 51 51 51 51 51 51 51 51 51 51 51 51 52 52 52 52 53 53 53 53 53 53 53 53 53 53 53 54 54 54 54 54 53 52 51 50 50 49 49 48 48 47 47 47 46 46 45 45 45 44 44 43 43 43 43 43 42 42 42 42 42 42
50 50 50 51 51 51 51 51 51 51 51 51 52 52 52 52 51 51 51 52 51 51 52 52 53 53 53 52 52 52 52 52 52 53 53 53 52 52 52 52 51 50 49 48 48 47 47 46 46 46 46 45 45 45 45 44 44 43 43 43 42 42 42 42 42 42 42 42 42
50 50 50 51 50 50 50 50 50 50 50 51 51 51 51 51 51 51 51 51 51 51 51 51 52 52 52 51 51 51 51 51 51 51 51 51 51 51 50 50 49 49 48 48 48 47 47 46 45 45 45 45 44 44 44 44 44 43 43 42 42 42 42 43 43 43 43 43 43
50 50 50 50 50 50 50 49 49 49 49 50 50 50 51 51 51 51 51 50 50 50 50 50 51 51 51 51 51 51 50 50 50 50 50 50 50 50 49 49 49 48 48 48 49 49 48 47 46 45 45 45 44 44 44 44 43 43 43 43 42 42 42 42 43 43 44 44 44
49 49 49 50 49 49 49 49 49 49 49 49 49 49 50 50 50 50 50 50 50 50 50 50 50 50 50 50 50 50 50 49 49 49 49 49 49 49 49 49 48 48 48 49 49 49 49 49 48 46 45 44 44 44 43 43 43 43 43 42 42 42 41 41 42 42 43 43 44
49 49 49 49 49 49 49 49 49 49 49 49 49 49 49 49 49 49 49 49 49 49 49 49 49 49 49 49 49 49 48 48 48 48 48 48 48 48 48 48 48 48 49 49 50 50 49 49 48 47 45 44 43 43 42 42 42 41 41 41 41 41 41 40 40 40 41 42 42
48 48 48 48 48 48 48 48 48 48 48 48 48 48 48 49 49 48 48 49 49 49 48 48 49 49 49 48 48 48 48 48 48 48 47 47 47 47 47 47 48 48 49 50 50 49 49 49 48 47 46 44 43 42 42 41 41 40 40 40 40 40 40 39 39 39 40 40 40
48 48 48 47 47 47 47 47 47 47 48 48 48 48 48 48 48 48 48 48 48 47 47 47 48 48 47 47 47 47 47 47 47 47 47 47 47 47 47 47 47 48 49 50 49 49 49 48 48 47 46 45 43 42 41 41 40 40 39 39 39 39 38 38 38 38 38 38 39
48 47 47 47 47 47 47 47 47 47 47 47 48 48 47 47 47 47 47 47 47 47 47 47 47 47 46 46 46 46 46 46 47 47 46 46 46 45 46 46 46 46 47 48 48 48 47 47 47 46 45 44 42 41 40 39 39 38 38 38 38 37 37 37 37 37 37 37 37
47 47 47 47 46 46 46 47 47 47 47 47 47 47 47 46 46 46 46 46 46 46 47 47 46 46 46 46 46 46 46 46 46 46 45 45 45 44 44 44 45 45 46 47 47 47 46 46 45 45 44 43 41 40 39 39 38 38 37 37 37 37 37 37 37 37 37 37 37
47 47 47 46 46 46 46 46 47 47 47 47 46 46 46 46 46 46 46 46 46 46 46 46 45 45 45 45 45 45 45 45 45 45 44 44 44 43 43 44 44 45 46 47 46 46 46 45 45 44 43 43 41 40 39 38 38 38 38 37 38 38 38 37 37 37 37 37 37
47 47 46 46 46 46 46 46 46 46 46 46 46 46 45 45 46 46 46 46 46 45 45 45 45 45 45 45 44 44 44 44 44 44 44 44 44 43 43 43 43 44 46 46 46 45 45 45 44 44 43 42 40 39 38 38 38 38 38 38 38 38 38 38 38 38 38 38 38
47 46 46 46 46 46 46 46 46 46 46 45 45 45 45 45 45 45 45 45 45 45 45 45 45 45 44 44 44 44 44 44 44 44 44 44 43 43 43 43 43 44 46 46 45 45 45 44 44 43 42 41 40 38 38 38 38 38 38 38 38 38 38 38 38 39 39 40 40
46 46 46 46 46 46 46 46 46 46 45 45 45 45 45 45 45 45 45 45 45 45 45 45 45 45 45 45 44 44 44 44 43 43 43 43 43 43 42 42 43 44 45 45 45 45 44 44 43 43 42 40 39 38 38 38 38 37 37 37 38 38 38 38 38 39 40 40 40
46 46 46 46 46 46 46 46 46 45 45 45 45 45 45 45 45 45 45 45 45 45 44 44 44 44 44 44 44 44 44 44 43 43 43 43 43 42 42 42 43 44 45 45 45 45 44 44 43 42 41 40 38 38 38 38 37 37 37 37 37 38 38 38 38 39 40 40 41
46 46 46 46 45 45 45 45 45 45 45 45 45 45 45 45 45 45 45 45 44 44 44 44 43 43 43 43 43 43 43 43 43 43 43 43 43 42 42 42 42 43 44 45 45 45 44 44 43 42 41 39 38 38 38 37 37 37 37 37 37 38 38 38 39 39 40 41 42
47 46 46 46 45 45 45 45 45 45 45 45 45 45 45 45 45 45 45 45 44 43 43 43 43 43 43 43 43 43 43 43 43 43 43 43 43 42 42 42 42 43 44 45 45 45 44 44 43 42 41 39 38 38 38 37 37 37 37 37 37 38 38 39 39 39 41 43 44
47 46 46 46 46 45 45 45 45 45 45 45 45 45 45 45 45 45 45 45 44 44 43 43 43 43 43 43 43 42 43 43 43 43 42 42 42 42 42 42 42 42 43 44 45 44 44 44 43 43 41 39 38 38 38 37 37 37 37 37 37 38 38 39 39 39 41 43 46
47 47 46 46 46 45 45 45 45 45 45 45 45 45 45 45 45 45 45 45 44 44 43 43 43 43 43 43 43 42 42 42 42 42 42 42 43 43 43 42 41 42 43 44 44 44 44 44 43 43 41 40 39 38 38 38 37 37 37 37 37 37 38 38 39 40 41 43 45
47 47 46 46 46 45 45 45 45 45 45 45 45 45 45 45 45 45 45 45 44 44 44 43 43 43 43 43 43 42 42 42 42 42 42 42 42 43 42 42 41 41 42 43 44 44 44 44 43 43 42 40 39 38 38 38 37 36 36 37 37 37 38 38 39 40 41 42 44
MSLP
1009.69 1009.61 1009.53 1009.37 1009.21 1009.05 1008.89 1008.73 1008.57 1008.41 1008.25 1008.01 1007.89 1007.77 1007.73 1007.69 1007.57 1007.41 1007.25 1007.21 1007.13 1007.05 1007.01 1007.01 1007.01 1006.97 1006.93 1006.93 1006.89 1006.89 1006.85 1006.81 1006.73 1006.69 1006.65 1006.61 1006.57 1006.53 1006.45 1006.45 1006.41 1006.37 1006.37 1006.33 1006.33 1006.37 1006.37 1006.41 1006.41 1006.29 1006.17 1006.01 1005.97 1005.89 1005.77 1005.73 1005.77 1005.93 1006.05 1006.17 1006.29 1006.45 1006.57 1006.77 1006.89 1007.01 1007.17 1007.25 1007.37
1009.61 1009.49 1009.41 1009.25 1009.09 1008.97 1008.85 1008.65 1008.49 1008.33 1008.17 1008.01 1007.85 1007.73 1007.65 1007.57 1007.45 1007.29 1007.17 1007.17 1007.13 1007.09 1007.05 1007.01 1007.01 1006.97 1006.93 1006.89 1006.89 1006.85 1006.81 1006.77 1006.69 1006.65 1006.65 1006.61 1006.53 1006.45 1006.41 1006.37 1006.29 1006.29 1006.29 1006.29 1006.29 1006.29 1006.33 1006.37 1006.33 1006.25 1006.13 1006.01 1005.97 1005.93 1005.85 1005.69 1005.73 1005.89 1006.01 1006.17 1006.33 1006.45 1006.61 1006.73 1006.89 1007.01 1007.17 1007.25 1007.33
1009.57 1009.45 1009.29 1009.17 1009.05 1008.93 1008.77 1008.61 1008.45 1008.33 1008.17 1007.97 1007.77 1007.61 1007.53 1007.45 1007.33 1007.25 1007.17 1007.09 1007.09 1007.09 1007.05 1007.01 1006.97 1006.93 1006.89 1006.89 1006.85 1006.81 1006.77 1006.73 1006.65 1006.65 1006.61 1006.53 1006.45 1006.33 1006.29 1006.25 1006.21 1006.17 1006.17 1006.21 1006.21 1006.29 1006.29 1006.33 1006.29 1006.21 1006.09 1005.97 1005.93 1005.89 1005.77 1005.69 1005.73 1005.89 1006.01 1006.17 1006.37 1006.49 1006.65 1006.77 1006.93 1007.05 1007.17 1007.25 1007.33
1009.53 1009.41 1009.25 1009.09 1009.01 1008.89 1008.77 1008.61 1008.45 1008.29 1008.05 1007.89 1007.65 1007.53 1007.45 1007.37 1007.29 1007.25 1007.21 1007.13 1007.09 1007.09 1007.09 1007.05 1007.01 1006.93 1006.89 1006.85 1006.81 1006.77 1006.73 1006.69 1006.61 1006.57 1006.57 1006.45 1006.29 1006.21 1006.17 1006.17 1006.17 1006.17 1006.17 1006.17 1006.17 1006.21 1006.25 1006.29 1006.21 1006.13 1006.01 1005.93 1005.93 1005.89 1005.77 1005.69 1005.73 1005.89 1006.01 1006.21 1006.37 1006.49 1006.65 1006.81 1006.97 1007.09 1007.21 1007.29 1007.41
1009.45 1009.33 1009.21 1009.09 1008.97 1008.89 1008.73 1008.57 1008.41 1008.21 1008.01 1007.81 1007.65 1007.53 1007.41 1007.29 1007.25 1007.17 1007.17 1007.13 1007.13 1007.09 1007.09 1007.05 1007.01 1006.89 1006.81 1006.77 1006.73 1006.73 1006.69 1006.61 1006.57 1006.57 1006.49 1006.37 1006.21 1006.09 1006.01 1006.01 1006.01 1006.05 1006.05 1006.09 1006.09 1006.17 1006.25 1006.21 1006.17 1006.05 1005.93 1005.85 1005.89 1005.89 1005.81 1005.69 1005.77 1005.89 1006.05 1006.25 1006.41 1006.53 1006.69 1006.89 1007.01 1007.13 1007.25 1007.41 1007.53
1009.45 1009.29 1009.17 1009.01 1008.93 1008.81 1008.65 1008.45 1008.29 1008.17 1008.01 1007.85 1007.73 1007.57 1007.45 1007.29 1007.21 1007.17 1007.09 1007.05 1007.05 1007.01 1007.01 1006.97 1006.89 1006.81 1006.73 1006.69 1006.69 1006.65 1006.61 1006.57 1006.57 1006.53 1006.45 1006.25 1006.13 1006.01 1005.93 1005.93 1005.93 1005.97 1005.97 1005.97 1006.01 1006.09 1006.17 1006.17 1006.13 1006.01 1005.93 1005.89 1005.89 1005.93 1005.89 1005.73 1005.81 1005.97 1006.13 1006.29 1006.45 1006.57 1006.73 1006.93 1007.05 1007.17 1007.29 1007.45 1007.61
1009.45 1009.29 1009.17 1008.97 1008.89 1008.73 1008.57 1008.41 1008.25 1008.13 1008.01 1007.85 1007.73 1007.61 1007.45 1007.33 1007.25 1007.17 1007.09 1007.01 1006.93 1006.89 1006.89 1006.81 1006.77 1006.73 1006.69 1006.61 1006.61 1006.57 1006.57 1006.53 1006.45 1006.41 1006.29 1006.17 1006.05 1006.01 1005.93 1005.89 1005.89 1005.89 1005.89 1005.89 1005.97 1006.09 1006.17 1006.13 1006.05 1005.97 1005.89 1005.89 1005.97 1006.01 1005.93 1005.77 1005.89 1006.05 1006.25 1006.45 1006.57 1006.73 1006.85 1007.01 1007.09 1007.21 1007.41 1007.61 1007.69
1009.37 1009.21 1009.05 1008.89 1008.77 1008.61 1008.45 1008.29 1008.17 1008.05 1007.93 1007.81 1007.73 1007.61 1007.45 1007.33 1007.25 1007.13 1007.01 1006.93 1006.89 1006.85 1006.77 1006.73 1006.69 1006.65 1006.61 1006.57 1006.57 1006.57 1006.53 1006.45 1006.37 1006.25 1006.13 1006.05 1006.01 1005.93 1005.89 1005.85 1005.85 1005.85 1005.85 1005.85 1005.97 1006.05 1006.09 1006.05 1006.01 1005.93 1005.93 1005.97 1006.01 1006.05 1006.01 1005.85 1005.97 1006.17 1006.33 1006.53 1006.69 1006.85 1006.97 1007.13 1007.21 1007.29 1007.45 1007.61 1007.77
1009.29 1009.13 1008.93 1008.81 1008.69 1008.57 1008.37 1008.21 1008.05 1007.97 1007.89 1007.73 1007.61 1007.53 1007.45 1007.29 1007.17 1007.05 1006.93 1006.85 1006.77 1006.73 1006.65 1006.61 1006.57 1006.53 1006.53 1006.53 1006.53 1006.49 1006.41 1006.29 1006.21 1006.13 1006.01 1005.93 1005.89 1005.89 1005.85 1005.85 1005.85 1005.85 1005.81 1005.85 1005.97 1006.05 1006.05 1006.01 1005.97 1005.93 1005.97 1006.01 1006.09 1006.13 1006.09 1006.01 1006.09 1006.29 1006.49 1006.69 1006.85 1007.01 1007.13 1007.21 1007.29 1007.41 1007.53 1007.69 1007.85
1009.21 1009.05 1008.89 1008.73 1008.57 1008.41 1008.25 1008.13 1007.97 1007.89 1007.77 1007.69 1007.57 1007.45 1007.33 1007.21 1007.09 1006.97 1006.89 1006.77 1006.73 1006.61 1006.57 1006.49 1006.45 1006.41 1006.37 1006.37 1006.37 1006.29 1006.21 1006.09 1006.01 1005.89 1005.89 1005.89 1005.85 1005.85 1005.85 1005.81 1005.81 1005.77 1005.81 1005.89 1005.97 1006.01 1006.01 1005.97 1005.93 1005.93 1006.01 1006.09 1006.17 1006.25 1006.29 1006.29 1006.29 1006.45 1006.65 1006.81 1006.97 1007.13 1007.25 1007.29 1007.45 1007.61 1007.69 1007.81 1008.01
1009.17 1009.01 1008.85 1008.69 1008.49 1008.33 1008.17 1008.05 1007.89 1007.77 1007.69 1007.61 1007.45 1007.33 1007.21 1007.13 1007.01 1006.89 1006.77 1006.69 1006.57 1006.53 1006.45 1006.41 1006.33 1006.29 1006.29 1006.29 1006.21 1006.13 1006.01 1005.89 1005.85 1005.85 1005.85 1005.81 1005.81 1005.81 1005.77 1005.73 1005.73 1005.73 1005.77 1005.89 1005.97 1006.01 1005.97 1005.93 1005.89 1005.97 1006.05 1006.17 1006.25 1006.33 1006.41 1006.49 1006.49 1006.61 1006.77 1006.93 1007.13 1007.25 1007.37 1007.49 1007.61 1007.73 1007.85 1008.01 1008.17
1009.09 1008.89 1008.73 1008.61 1008.45 1008.25 1008.13 1008.01 1007.89 1007.77 1007.65 1007.57 1007.41 1007.25 1007.17 1007.01 1006.89 1006.77 1006.69 1006.61 1006.53 1006.45 1006.33 1006.29 1006.21 1006.17 1006.17 1006.13 1006.05 1005.97 1005.89 1005.81 1005.77 1005.81 1005.81 1005.81 1005.81 1005.77 1005.73 1005.69 1005.65 1005.73 1005.81 1005.93 1005.97 1005.97 1005.93 1005.89 1005.89 1006.01 1006.13 1006.25 1006.33 1006.41 1006.45 1006.57 1006.69 1006.77 1006.93 1007.13 1007.25 1007.41 1007.53 1007.61 1007.73 1007.85 1008.01 1008.17 1008.37
1009.01 1008.89 1008.69 1008.53 1008.37 1008.21 1008.09 1007.97 1007.85 1007.73 1007.61 1007.45 1007.29 1007.17 1007.09 1007.01 1006.89 1006.77 1006.65 1006.53 1006.45 1006.37 1006.29 1006.17 1006.13 1006.09 1006.01 1006.01 1005.89 1005.89 1005.81 1005.73 1005.69 1005.73 1005.77 1005.81 1005.85 1005.77 1005.73 1005.69 1005.69 1005.77 1005.89 1006.01 1005.97 1005.93 1005.89 1005.93 1005.97 1006.05 1006.17 1006.29 1006.41 1006.45 1006.57 1006.73 1006.85 1006.93 1007.09 1007.29 1007.41 1007.53 1007.65 1007.77 1007.89 1008.01 1008.17 1008.33 1008.53
1009.01 1008.85 1008.65 1008.49 1008.33 1008.17 1008.01 1007.89 1007.77 1007.65 1007.53 1007.41 1007.25 1007.13 1007.01 1006.97 1006.89 1006.77 1006.65 1006.49 1006.33 1006.25 1006.17 1006.09 1006.01 1006.01 1005.97 1005.89 1005.85 1005.85 1005.77 1005.73 1005.69 1005.73 1005.77 1005.85 1005.81 1005.77 1005.73 1005.73 1005.77 1005.89 1005.97 1006.01 1005.93 1005.89 1005.93 1005.97 1006.01 1006.13 1006.29 1006.45 1006.49 1006.57 1006.69 1006.85 1006.97 1007.09 1007.25 1007.45 1007.61 1007.69 1007.77 1007.93 1008.05 1008.17 1008.29 1008.45 1008.69
1008.97 1008.77 1008.61 1008.45 1008.29 1008.17 1007.97 1007.85 1007.73 1007.61 1007.45 1007.29 1007.17 1007.01 1006.93 1006.85 1006.73 1006.69 1006.57 1006.37 1006.17 1006.05 1006.01 1006.01 1005.93 1005.89 1005.81 1005.77 1005.81 1005.81 1005.77 1005.73 1005.73 1005.73 1005.81 1005.89 1005.81 1005.73 1005.73 1005.77 1005.89 1005.97 1006.01 1005.97 1005.89 1005.89 1005.93 1006.01 1006.13 1006.29 1006.45 1006.57 1006.61 1006.73 1006.81 1006.97 1007.13 1007.29 1007.45 1007.61 1007.73 1007.85 1007.93 1008.05 1008.21 1008.37 1008.49 1008.65 1008.85
1008.93 1008.73 1008.57 1008.45 1008.29 1008.13 1007.97 1007.81 1007.73 1007.57 1007.41 1007.21 1007.09 1006.93 1006.81 1006.69 1006.53 1006.41 1006.29 1006.17 1006.01 1005.89 1005.89 1005.81 1005.77 1005.73 1005.73 1005.73 1005.73 1005.77 1005.77 1005.77 1005.73 1005.73 1005.77 1005.85 1005.85 1005.77 1005.73 1005.85 1005.93 1005.97 1005.93 1005.89 1005.89 1005.93 1006.01 1006.09 1006.29 1006.41 1006.57 1006.73 1006.81 1006.89 1006.97 1007.13 1007.33 1007.57 1007.69 1007.81 1007.89 1008.01 1008.17 1008.29 1008.45 1008.61 1008.73 1008.89 1009.09
1008.93 1008.73 1008.57 1008.41 1008.25 1008.13 1007.97 1007.85 1007.73 1007.57 1007.37 1007.17 1007.01 1006.85 1006.69 1006.53 1006.29 1006.13 1006.01 1005.89 1005.81 1005.73 1005.69 1005.65 1005.61 1005.61 1005.61 1005.61 1005.69 1005.73 1005.77 1005.77 1005.73 1005.73 1005.77 1005.81 1005.85 1005.81 1005.77 1005.89 1005.97 1005.97 1005.93 1005.89 1005.93 1006.01 1006.13 1006.29 1006.45 1006.57 1006.69 1006.89 1007.01 1007.09 1007.17 1007.37 1007.61 1007.77 1007.93 1008.01 1008.17 1008.29 1008.45 1008.61 1008.73 1008.89 1009.01 1009.21 1009.41
1008.89 1008.73 1008.53 1008.37 1008.21 1008.05 1007.93 1007.81 1007.65 1007.49 1007.33 1007.13 1006.97 1006.77 1006.61 1006.45 1006.25 1006.05 1005.89 1005.73 1005.65 1005.61 1005.53 1005.49 1005.45 1005.45 1005.49 1005.53 1005.61 1005.73 1005.73 1005.73 1005.77 1005.77 1005.81 1005.81 1005.85 1005.81 1005.81 1005.93 1006.01 1006.01 1006.01 1006.01 1006.09 1006.17 1006.29 1006.45 1006.57 1006.73 1006.89 1007.05 1007.21 1007.33 1007.49 1007.73 1007.93 1008.13 1008.25 1008.37 1008.53 1008.65 1008.77 1008.89 1009.01 1009.17 1009.33 1009.49 1009.65
1008.89 1008.69 1008.49 1008.33 1008.17 1008.01 1007.89 1007.73 1007.57 1007.41 1007.25 1007.05 1006.89 1006.77 1006.61 1006.45 1006.29 1006.09 1005.89 1005.69 1005.57 1005.45 1005.41 1005.37 1005.33 1005.29 1005.37 1005.45 1005.61 1005.69 1005.73 1005.73 1005.77 1005.81 1005.81 1005.85 1005.81 1005.81 1005.89 1006.01 1006.09 1006.17 1006.25 1006.29 1006.37 1006.45 1006.49 1006.65 1006.81 1006.97 1007.17 1007.33 1007.53 1007.73 1007.93 1008.17 1008.33 1008.53 1008.65 1008.81 1008.93 1009.05 1009.17 1009.25 1009.37 1009.53 1009.69 1009.85 1010.01
1008.89 1008.73 1008.57 1008.37 1008.21 1008.01 1007.85 1007.69 1007.49 1007.33 1007.17 1007.01 1006.89 1006.77 1006.69 1006.53 1006.33 1006.17 1006.01 1005.77 1005.57 1005.45 1005.33 1005.29 1005.33 1005.33 1005.41 1005.49 1005.61 1005.69 1005.73 1005.73 1005.77 1005.81 1005.85 1005.85 1005.81 1005.85 1006.01 1006.17 1006.29 1006.45 1006.53 1006.61 1006.73 1006.85 1006.89 1006.97 1007.13 1007.33 1007.53 1007.73 1007.93 1008.17 1008.33 1008.57 1008.73 1008.93 1009.09 1009.21 1009.37 1009.45 1009.53 1009.65 1009.77 1009.89 1010.05 1010.21 1010.37
1009.01 1008.85 1008.69 1008.49 1008.29 1008.13 1007.93 1007.73 1007.53 1007.33 1007.17 1007.05 1006.93 1006.85 1006.73 1006.57 1006.45 1006.29 1006.13 1005.89 1005.69 1005.53 1005.45 1005.41 1005.45 1005.49 1005.53 1005.61 1005.65 1005.73 1005.81 1005.85 1005.85 1005.89 1005.93 1005.89 1005.89 1006.01 1006.21 1006.41 1006.57 1006.73 1006.85 1007.01 1007.21 1007.29 1007.29 1007.37 1007.57 1007.73 1007.93 1008.17 1008.33 1008.53 1008.73 1008.93 1009.13 1009.29 1009.45 1009.61 1009.73 1009.85 1009.93 1010.01 1010.17 1010.29 1010.45 1010.61 1010.81
1009.17 1009.01 1008.85 1008.65 1008.45 1008.29 1008.09 1007.89 1007.69 1007.45 1007.29 1007.17 1007.05 1006.93 1006.85 1006.73 1006.61 1006.45 1006.29 1006.09 1005.89 1005.77 1005.69 1005.65 1005.65 1005.69 1005.73 1005.81 1005.85 1005.93 1006.01 1006.09 1006.09 1006.09 1006.05 1006.05 1006.17 1006.37 1006.57 1006.73 1006.89 1007.05 1007.21 1007.45 1007.65 1007.73 1007.77 1007.81 1007.97 1008.17 1008.33 1008.57 1008.73 1008.89 1009.09 1009.25 1009.45 1009.61 1009.77 1009.93 1010.01 1010.17 1010.29 1010.45 1010.57 1010.73 1010.89 1011.05 1011.21
1009.37 1009.21 1009.05 1008.89 1008.73 1008.53 1008.33 1008.17 1007.93 1007.73 1007.57 1007.45 1007.29 1007.17 1007.09 1007.01 1006.89 1006.73 1006.57 1006.37 1006.25 1006.13 1006.01 1006.01 1006.01 1006.05 1006.09 1006.13 1006.17 1006.21 1006.29 1006.29 1006.29 1006.29 1006.29 1006.41 1006.57 1006.85 1007.01 1007.17 1007.29 1007.45 1007.69 1007.93 1008.05 1008.09 1008.13 1008.21 1008.41 1008.57 1008.77 1008.93 1009.13 1009.29 1009.45 1009.61 1009.77 1009.93 1010.05 1010.17 1010.29 1010.45 1010.61 1010.81 1011.01 1011.13 1011.25 1011.41 1011.49
1009.61 1009.45 1009.29 1009.17 1009.01 1008.85 1008.65 1008.45 1008.29 1008.09 1007.93 1007.81 1007.69 1007.57 1007.45 1007.37 1007.25 1007.05 1006.89 1006.77 1006.65 1006.57 1006.53 1006.49 1006.45 1006.45 1006.49 1006.49 1006.49 1006.49 1006.45 1006.49 1006.53 1006.57 1006.69 1006.85 1007.05 1007.25 1007.45 1007.61 1007.73 1007.97 1008.17 1008.33 1008.41 1008.41 1008.45 1008.57 1008.77 1009.01 1009.17 1009.29 1009.45 1009.65 1009.85 1010.01 1010.13 1010.25 1010.29 1010.41 1010.49 1010.69 1010.93 1011.17 1011.29 1011.41 1011.49 1011.61 1011.65
1009.93 1009.73 1009.61 1009.45 1009.29 1009.13 1008.97 1008.77 1008.65 1008.49 1008.37 1008.21 1008.09 1007.97 1007.85 1007.69 1007.61 1007.45 1007.29 1007.21 1007.13 1007.01 1007.01 1006.97 1006.89 1006.89 1006.89 1006.89 1006.89 1006.89 1006.89 1006.89 1006.93 1007.01 1007.17 1007.33 1007.49 1007.65 1007.81 1008.01 1008.21 1008.45 1008.57 1008.69 1008.69 1008.69 1008.73 1008.89 1009.09 1009.29 1009.49 1009.65 1009.81 1010.01 1010.17 1010.33 1010.45 1010.53 1010.57 1010.69 1010.77 1010.97 1011.17 1011.41 1011.53 1011.61 1011.69 1011.73 1011.77
1010.17 1010.01 1009.89 1009.77 1009.61 1009.45 1009.29 1009.17 1009.01 1008.89 1008.73 1008.65 1008.49 1008.37 1008.25 1008.13 1007.97 1007.85 1007.73 1007.65 1007.57 1007.49 1007.45 1007.41 1007.37 1007.33 1007.33 1007.33 1007.33 1007.33 1007.37 1007.41 1007.45 1007.53 1007.65 1007.77 1007.93 1008.05 1008.25 1008.45 1008.65 1008.89 1009.01 1009.01 1009.01 1009.01 1009.13 1009.25 1009.41 1009.61 1009.73 1009.93 1010.13 1010.33 1010.53 1010.73 1010.81 1010.89 1010.93 1011.01 1011.13 1011.29 1011.49 1011.69 1011.85 1011.93 1012.01 1012.05 1012.13
1010.49 1010.37 1010.25 1010.09 1009.89 1009.77 1009.65 1009.53 1009.41 1009.29 1009.17 1009.01 1008.89 1008.77 1008.65 1008.53 1008.41 1008.25 1008.17 1008.09 1008.05 1007.97 1007.89 1007.89 1007.85 1007.85 1007.85 1007.85 1007.81 1007.85 1007.89 1007.93 1007.97 1008.05 1008.17 1008.25 1008.37 1008.53 1008.73 1008.89 1009.13 1009.29 1009.37 1009.37 1009.33 1009.41 1009.53 1009.65 1009.81 1009.93 1010.09 1010.29 1010.45 1010.61 1010.85 1011.01 1011.17 1011.29 1011.33 1011.45 1011.57 1011.69 1011.85 1012.01 1012.17 1012.29 1012.37 1012.45 1012.53
1010.81 1010.69 1010.57 1010.37 1010.25 1010.17 1010.01 1009.89 1009.77 1009.65 1009.53 1009.45 1009.29 1009.17 1009.05 1008.93 1008.81 1008.73 1008.61 1008.57 1008.45 1008.45 1008.37 1008.37 1008.33 1008.29 1008.29 1008.29 1008.29 1008.33 1008.41 1008.45 1008.45 1008.53 1008.65 1008.73 1008.85 1009.01 1009.17 1009.37 1009.57 1009.69 1009.73 1009.73 1009.69 1009.77 1009.89 1010.05 1010.17 1010.29 1010.45 1010.57 1010.77 1010.97 1011.17 1011.33 1011.45 1011.61 1011.73 1011.89 1012.01 1012.17 1012.29 1012.45 1012.57 1012.69 1012.81 1012.89 1012.93
1011.17 1011.01 1010.89 1010.73 1010.57 1010.49 1010.37 1010.25 1010.17 1010.05 1009.93 1009.81 1009.69 1009.57 1009.45 1009.33 1009.25 1009.17 1009.09 1009.01 1008.93 1008.89 1008.89 1008.89 1008.85 1008.77 1008.73 1008.81 1008.89 1008.89 1008.93 1008.97 1009.01 1009.05 1009.13 1009.21 1009.37 1009.53 1009.73 1009.85 1010.01 1010.09 1010.09 1010.05 1010.09 1010.17 1010.29 1010.41 1010.57 1010.69 1010.77 1010.89 1011.09 1011.29 1011.45 1011.65 1011.85 1012.01 1012.17 1012.37 1012.49 1012.61 1012.73 1012.89 1013.01 1013.13 1013.21 1013.25 1013.29
1011.45 1011.29 1011.17 1011.05 1010.97 1010.85 1010.73 1010.69 1010.57 1010.45 1010.29 1010.17 1010.01 1009.93 1009.85 1009.77 1009.73 1009.65 1009.61 1009.53 1009.49 1009.49 1009.45 1009.41 1009.29 1009.29 1009.29 1009.33 1009.37 1009.37 1009.45 1009.49 1009.53 1009.61 1009.65 1009.73 1009.89 1010.09 1010.29 1010.41 1010.49 1010.57 1010.57 1010.57 1010.57 1010.65 1010.73 1010.89 1011.01 1011.09 1011.21 1011.33 1011.45 1011.65 1011.89 1012.09 1012.25 1012.45 1012.65 1012.89 1013.01 1013.05 1013.17 1013.29 1013.45 1013.57 1013.61 1013.61 1013.61
1011.77 1011.61 1011.49 1011.37 1011.29 1011.21 1011.17 1011.05 1010.97 1010.81 1010.69 1010.53 1010.41 1010.29 1010.25 1010.21 1010.21 1010.17 1010.13 1010.09 1010.09 1010.05 1009.97 1009.85 1009.81 1009.81 1009.89 1009.89 1009.89 1009.93 1010.01 1010.05 1010.09 1010.17 1010.17 1010.29 1010.49 1010.65 1010.77 1010.89 1011.01 1011.09 1011.09 1011.09 1011.13 1011.17 1011.25 1011.33 1011.45 1011.57 1011.65 1011.73 1011.89 1012.09 1012.29 1012.49 1012.69 1012.89 1013.09 1013.25 1013.33 1013.45 1013.53 1013.65 1013.77 1013.89 1013.89 1013.89 1013.89
1012.09 1011.97 1011.85 1011.73 1011.61 1011.57 1011.49 1011.41 1011.29 1011.17 1011.01 1010.89 1010.77 1010.73 1010.69 1010.69 1010.69 1010.69 1010.65 1010.57 1010.53 1010.45 1010.37 1010.29 1010.29 1010.33 1010.41 1010.41 1010.45 1010.45 1010.53 1010.57 1010.69 1010.73 1010.81 1010.89 1011.01 1011.13 1011.25 1011.37 1011.53 1011.61 1011.61 1011.61 1011.61 1011.65 1011.73 1011.81 1011.89 1011.97 1012.05 1012.17 1012.29 1012.49 1012.69 1012.89 1013.05 1013.29 1013.45 1013.61 1013.73 1013.77 1013.85 1013.93 1014.05 1014.13 1014.17 1014.17 1014.17
1012.37 1012.25 1012.17 1012.05 1012.01 1011.93 1011.85 1011.73 1011.61 1011.49 1011.37 1011.25 1011.17 1011.17 1011.21 1011.17 1011.17 1011.13 1011.05 1011.01 1010.93 1010.89 1010.89 1010.89 1010.85 1010.89 1010.93 1010.97 1011.01 1011.01 1011.09 1011.17 1011.25 1011.33 1011.37 1011.45 1011.45 1011.53 1011.65 1011.81 1012.01 1012.09 1012.05 1012.05 1012.05 1012.09 1012.17 1012.21 1012.29 1012.37 1012.45 1012.53 1012.73 1012.89 1013.05 1013.21 1013.45 1013.61 1013.81 1013.93 1014.01 1014.13 1014.17 1014.21 1014.29 1014.33 1014.37 1014.41 1014.45
1012.69 1012.57 1012.45 1012.37 1012.29 1012.25 1012.17 1012.09 1012.01 1011.89 1011.73 1011.65 1011.61 1011.61 1011.65 1011.61 1011.57 1011.57 1011.53 1011.45 1011.45 1011.41 1011.37 1011.41 1011.41 1011.45 1011.45 1011.45 1011.49 1011.57 1011.61 1011.69 1011.77 1011.81 1011.89 1011.89 1011.93 1011.97 1012.05 1012.21 1012.45 1012.53 1012.49 1012.45 1012.45 1012.49 1012.57 1012.61 1012.65 1012.73 1012.81 1012.93 1013.13 1013.29 1013.41 1013.61 1013.77 1013.97 1014.13 1014.25 1014.33 1014.45 1014.45 1014.49 1014.57 1014.57 1014.61 1014.65 1014.73
1013.01 1012.89 1012.81 1012.73 1012.65 1012.57 1012.49 1012.45 1012.29 1012.17 1012.09 1012.01 1012.01 1012.01 1012.01 1012.01 1012.01 1012.01 1012.01 1011.97 1011.89 1011.89 1011.89 1011.89 1011.89 1011.89 1011.93 1011.97 1011.97 1012.01 1012.05 1012.17 1012.21 1012.29 1012.29 1012.37 1012.41 1012.41 1012.49 1012.65 1012.85 1012.89 1012.89 1012.85 1012.89 1012.89 1012.97 1013.01 1013.01 1013.01 1013.13 1013.29 1013.49 1013.65 1013.81 1013.97 1014.17 1014.29 1014.45 1014.57 1014.65 1014.73 1014.81 1014.85 1014.89 1014.93 1015.01 1015.01 1015.01
1013.29 1013.17 1013.13 1013.05 1012.97 1012.89 1012.85 1012.73 1012.61 1012.53 1012.45 1012.45 1012.45 1012.45 1012.45 1012.45 1012.45 1012.45 1012.45 1012.37 1012.29 1012.29 1012.29 1012.33 1012.33 1012.33 1012.37 1012.45 1012.45 1012.49 1012.57 1012.57 1012.65 1012.73 1012.77 1012.81 1012.81 1012.81 1012.89 1013.01 1013.17 1013.25 1013.29 1013.25 1013.25 1013.29 1013.33 1013.37 1013.33 1013.37 1013.45 1013.61 1013.85 1014.01 1014.17 1014.29 1014.49 1014.65 1014.77 1014.85 1014.97 1015.09 1015.17 1015.21 1015.29 1015.29 1015.33 1015.29 1015.33
1013.61 1013.53 1013.45 1013.37 1013.29 1013.21 1013.17 1013.05 1012.97 1012.89 1012.85 1012.85 1012.85 1012.85 1012.85 1012.85 1012.89 1012.89 1012.89 1012.77 1012.73 1012.73 1012.77 1012.81 1012.81 1012.85 1012.89 1012.93 1013.01 1013.05 1013.09 1013.05 1013.05 1013.13 1013.17 1013.17 1013.13 1013.09 1013.17 1013.29 1013.45 1013.61 1013.65 1013.61 1013.61 1013.61 1013.65 1013.73 1013.73 1013.73 1013.77 1013.89 1014.13 1014.29 1014.45 1014.65 1014.81 1014.93 1015.01 1015.17 1015.29 1015.41 1015.49 1015.57 1015.61 1015.57 1015.53 1015.49 1015.57
1013.93 1013.85 1013.73 1013.69 1013.61 1013.53 1013.45 1013.37 1013.29 1013.25 1013.21 1013.25 1013.25 1013.25 1013.21 1013.25 1013.25 1013.29 1013.29 1013.17 1013.17 1013.17 1013.25 1013.29 1013.29 1013.33 1013.41 1013.45 1013.45 1013.45 1013.53 1013.49 1013.45 1013.45 1013.45 1013.45 1013.45 1013.45 1013.53 1013.69 1013.85 1013.97 1014.01 1014.01 1013.97 1013.97 1014.01 1014.01 1014.05 1014.05 1014.09 1014.21 1014.41 1014.57 1014.73 1014.89 1015.09 1015.17 1015.29 1015.45 1015.61 1015.73 1015.77 1015.81 1015.81 1015.77 1015.73 1015.73 1015.73
1014.25 1014.17 1014.05 1013.97 1013.89 1013.85 1013.73 1013.69 1013.61 1013.61 1013.61 1013.61 1013.61 1013.61 1013.61 1013.61 1013.61 1013.69 1013.69 1013.61 1013.61 1013.61 1013.61 1013.65 1013.69 1013.77 1013.81 1013.77 1013.73 1013.77 1013.81 1013.81 1013.81 1013.73 1013.77 1013.89 1013.89 1013.93 1013.97 1014.05 1014.21 1014.33 1014.37 1014.37 1014.33 1014.29 1014.33 1014.37 1014.41 1014.45 1014.45 1014.57 1014.73 1014.85 1015.01 1015.17 1015.29 1015.45 1015.61 1015.73 1015.85 1015.97 1016.01 1016.01 1016.01 1015.97 1015.93 1015.89 1015.85
1014.57 1014.45 1014.37 1014.29 1014.21 1014.17 1014.05 1014.01 1014.01 1014.01 1013.97 1013.93 1013.93 1013.97 1013.97 1014.01 1014.01 1014.05 1014.01 1014.01 1013.97 1013.93 1013.93 1013.97 1014.01 1014.09 1014.09 1014.01 1014.01 1014.05 1014.13 1014.17 1014.21 1014.21 1014.25 1014.33 1014.37 1014.37 1014.37 1014.45 1014.57 1014.69 1014.73 1014.69 1014.69 1014.69 1014.69 1014.73 1014.81 1014.85 1014.89 1014.93 1015.05 1015.17 1015.29 1015.41 1015.53 1015.69 1015.85 1015.97 1016.05 1016.17 1016.17 1016.21 1016.17 1016.13 1016.09 1016.05 1016.01
1014.81 1014.73 1014.65 1014.57 1014.53 1014.45 1014.37 1014.33 1014.33 1014.33 1014.29 1014.29 1014.29 1014.33 1014.37 1014.41 1014.41 1014.37 1014.33 1014.29 1014.29 1014.29 1014.29 1014.29 1014.37 1014.37 1014.37 1014.33 1014.37 1014.41 1014.45 1014.57 1014.61 1014.69 1014.73 1014.73 1014.77 1014.77 1014.77 1014.81 1014.89 1014.97 1015.05 1015.05 1015.05 1015.05 1015.09 1015.13 1015.21 1015.25 1015.29 1015.33 1015.45 1015.53 1015.61 1015.65 1015.77 1015.93 1016.09 1016.29 1016.29 1016.33 1016.37 1016.41 1016.37 1016.29 1016.29 1016.29 1016.25
Wind_Speed
5 5 5 5 5 5 5 5 6 6 6 5 5 4 4 4 4 4 4 3 3 2 2 2 2 2 2 3 3 3 4 5 5 6 7 7 7 7 7 7 6 6 6 6 5 4 3 4 5 5 5 5 5 5 5 4 4 5 4 4 4 4 4 5 5 5 5 5 4
6 6 5 6 6 6 5 5 6 6 6 5 5 4 4 4 4 4 3 3 2 2 2 2 2 2 3 3 3 3 4 5 6 7 7 7 7 7 7 7 7 7 6 6 5 3 3 4 5 5 5 4 4 5 5 4 4 4 5 5 4 3 3 4 4 4 5 5 4
6 6 6 6 6 6 6 5 6 7 7 6 5 4 4 4 3 3 3 2 2 2 2 2 2 3 3 3 3 3 4 5 7 7 7 8 7 7 7 7 7 7 7 5 4 3 3 5 5 5 5 4 5 5 4 3 4 4 5 5 4 3 3 3 3 4 4 3 4
7 6 6 7 8 7 7 6 6 7 7 6 5 4 3 2 2 2 2 2 2 2 2 2 3 3 3 2 3 3 4 6 7 8 8 8 8 8 7 7 7 7 6 5 4 3 4 5 5 5 5 5 5 5 4 3 4 4 4 4 3 3 3 3 3 3 3 3 3
7 7 6 7 8 7 7 6 7 7 6 5 4 3 2 2 2 2 2 2 2 2 2 3 4 3 3 2 3 4 5 7 8 9 8 8 8 8 8 7 7 6 5 4 3 3 4 6 5 5 5 4 4 4 3 3 4 4 3 3 3 3 3 3 3 3 3 3 3
7 7 7 7 7 7 6 6 6 6 5 4 3 3 3 2 2 2 2 1 1 2 3 4 4 4 3 3 3 4 5 6 8 8 9 9 8 7 6 6 6 5 4 3 3 3 4 6 5 5 4 3 3 4 4 4 4 4 4 3 3 3 3 3 3 3 3 3 4
7 7 7 7 7 7 6 6 5 5 4 3 4 4 4 3 3 3 2 2 2 2 3 3 3 3 3 3 3 4 5 6 8 9 9 8 7 5 4 4 4 4 3 3 2 3 4 6 5 4 3 3 3 4 5 4 4 4 4 4 3 3 3 3 3 3 4 5 5
7 7 7 7 7 7 7 6 5 5 4 4 4 5 5 4 4 4 3 3 3 3 3 3 3 3 3 3 4 5 6 8 9 9 9 7 6 5 4 4 3 2 3 3 2 3 4 5 4 3 3 3 3 4 5 5 5 6 5 5 4 3 3 3 3 3 4 6 6
7 7 7 7 6 6 6 6 6 5 5 5 5 5 5 5 5 4 4 3 3 3 3 3 4 4 4 4 5 6 7 8 9 8 7 5 5 4 4 3 1 1 3 3 2 3 5 5 3 3 3 3 3 4 5 5 6 7 6 5 4 4 3 3 3 4 5 6 6
7 7 7 7 7 6 6 6 5 5 5 6 6 6 6 6 5 5 4 4 4 4 4 4 5 5 5 5 6 7 8 8 8 7 5 4 4 4 3 2 0 2 2 2 2 4 5 4 3 3 3 3 3 4 4 4 5 7 6 4 4 4 4 4 4 5 6 6 7
8 8 7 7 7 6 5 5 4 4 4 5 5 6 6 6 5 5 4 4 5 5 5 5 5 5 5 6 6 7 8 7 5 4 3 3 3 3 2 1 1 2 2 1 2 3 3 3 2 3 4 3 3 3 3 3 5 7 7 5 5 5 5 5 5 5 6 7 8
8 8 7 7 7 6 5 4 4 4 4 5 5 5 5 5 5 5 5 5 5 6 6 6 6 6 6 6 6 7 7 7 5 3 2 2 2 1 1 1 2 2 1 1 2 3 2 2 3 3 4 4 3 3 3 4 6 7 7 6 6 6 6 6 6 6 6 8 9
8 8 7 7 7 7 5 4 4 3 4 5 5 5 5 5 5 6 6 6 6 6 6 6 6 6 6 6 6 6 6 6 4 2 1 1 1 0 1 2 2 2 0 2 2 2 2 2 3 4 4 4 3 3 5 5 6 7 7 7 6 6 6 7 7 7 8 9 9
8 8 7 7 7 7 6 5 4 4 4 5 5 5 4 4 5 6 6 6 6 6 6 5 5 5 5 5 5 5 5 5 3 2 1 1 1 1 2 3 2 1 1 2 2 3 3 3 3 4 4 4 4 5 5 6 6 7 7 7 7 7 7 7 8 8 9 9 9
8 8 7 7 7 7 6 5 4 4 4 5 5 5 4 4 4 5 6 7 7 6 5 4 4 4 5 5 4 4 4 3 2 1 1 1 1 1 2 3 2 0 1 2 2 3 3 4 4 4 4 4 4 5 6 7 7 7 6 6 6 7 7 8 8 8 9 9 9
8 7 7 7 7 6 6 5 4 4 5 5 5 5 4 4 4 4 5 6 6 5 5 5 4 4 4 4 3 2 2 1 0 1 1 1 0 1 3 4 2 0 1 2 2 3 3 4 4 4 5 5 6 7 8 9 8 8 7 7 7 8 8 8 8 8 9 9 9
7 8 7 7 7 7 6 6 5 5 5 5 5 5 5 5 5 5 5 5 5 5 5 5 4 4 4 3 3 2 2 1 1 1 1 1 0 2 3 5 2 1 1 2 2 3 4 5 5 5 6 7 8 9 10 10 9 9 9 9 9 9 9 9 9 9 9 10 10
8 8 8 8 8 7 7 7 6 6 6 6 6 5 5 6 6 6 5 5 5 6 6 5 4 4 4 3 2 2 2 1 1 1 1 0 1 3 4 5 3 3 3 3 4 4 5 7 7 8 9 10 10 11 11 11 11 11 11 11 11 10 10 10 10 10 10 10 10
8 8 9 9 9 9 9 8 8 7 7 6 6 6 6 7 7 7 7 7 6 5 4 3 3 2 2 2 2 2 2 2 1 1 1 1 2 4 6 6 5 5 5 6 6 7 8 10 11 11 11 12 12 12 12 12 12 12 12 12 12 12 11 11 11 11 11 11 10
9 9 9 10 10 10 10 9 9 8 7 6 6 6 6 7 7 8 8 8 7 6 4 3 2 2 2 3 3 3 2 2 2 2 2 2 5 7 8 8 7 7 8 9 10 10 11 12 13 13 13 13 13 13 13 13 13 13 13 12 12 12 13 13 13 13 12 12 11
10 10 10 10 10 10 10 10 9 9 8 7 6 6 6 6 7 8 8 9 9 8 7 6 6 5 5 5 5 4 3 2 3 3 4 6 8 9 9 9 9 10 11 12 12 12 12 13 14 14 14 14 14 13 13 13 13 13 13 12 12 13 14 14 14 14 13 13 12
11 10 10 10 11 12 12 12 11 11 10 9 8 8 8 8 9 10 10 10 11 10 10 9 9 9 8 8 8 7 6 5 5 6 8 10 11 11 11 10 11 12 13 13 12 12 13 14 14 14 14 13 13 13 13 13 13 13 14 14 14 15 15 15 14 14 13 13 12
11 11 11 11 12 13 14 13 13 13 13 12 11 11 11 11 11 12 12 12 12 12 12 11 11 12 12 11 11 10 9 9 10 11 12 13 13 13 12 12 12 13 12 11 10 11 12 13 14 14 13 13 14 14 14 13 13 13 14 15 15 16 15 14 14 13 12 12 11
12 12 11 11 13 14 14 14 14 14 14 14 13 13 12 12 12 12 13 14 14 14 13 11 12 12 13 13 13 12 12 13 14 15 15 15 14 14 13 12 12 11 10 8 9 10 11 11 11 12 12 12 13 13 13 13 12 13 13 15 15 15 15 14 13 12 12 12 11
13 13 12 12 13 13 14 14 14 14 14 14 14 13 13 12 12 12 13 14 14 15 14 13 13 12 12 13 13 13 14 14 15 15 15 15 14 14 13 11 10 9 8 9 14 15 15 13 11 11 11 12 12 12 12 12 13 13 13 14 14 14 14 14 13 13 13 13 13
13 13 13 13 13 14 14 14 14 14 14 14 14 14 13 12 12 12 13 14 14 14 14 13 13 12 12 12 13 13 13 13 14 15 15 15 15 14 13 11 9 8 9 12 18 20 20 19 16 14 12 11 11 12 12 12 13 14 14 14 14 14 14 13 14 14 14 14 14
13 13 13 13 14 14 14 14 13 14 14 14 14 14 13 13 13 13 13 13 14 13 13 12 12 12 12 12 14 14 14 13 14 15 16 16 15 15 13 11 9 9 11 17 21 22 22 22 21 18 15 12 12 12 11 12 13 13 14 13 13 14 14 14 14 14 13 13 13
13 13 13 14 14 14 14 13 13 13 13 14 14 14 14 14 14 14 14 14 13 13 12 11 11 10 10 11 13 15 15 15 15 15 16 16 16 15 14 12 10 11 15 20 22 23 23 23 22 20 18 14 12 12 12 12 12 12 12 12 12 13 13 13 12 12 12 12 11
13 13 13 14 14 14 14 14 14 13 13 13 14 14 15 15 15 15 15 15 14 13 11 10 9 9 10 12 13 14 15 15 14 15 15 17 17 16 14 13 13 15 19 23 23 23 23 23 22 21 19 16 12 10 10 10 11 11 11 10 11 11 12 11 11 10 10 10 11
13 13 13 14 14 14 14 14 14 13 13 13 14 15 15 15 15 15 15 15 15 13 12 11 11 12 13 13 13 14 14 14 14 15 16 17 17 16 15 14 14 16 20 24 24 24 24 24 23 23 22 19 15 12 11 11 11 11 11 10 11 12 12 12 12 11 10 9 10
13 13 13 14 14 14 14 14 14 14 14 13 15 15 15 15 15 15 14 14 14 13 13 14 15 16 15 14 14 14 14 14 14 15 16 17 17 17 16 16 16 17 20 25 25 25 25 25 25 25 24 22 17 14 12 12 12 12 11 11 12 13 13 12 12 11 11 11 11
13 13 13 14 14 14 13 13 14 14 14 15 15 16 15 15 14 14 13 13 13 14 15 16 16 16 16 15 15 15 15 15 15 15 15 16 16 16 16 16 16 18 21 25 26 26 26 26 26 26 25 23 19 16 15 14 14 13 13 13 14 14 13 11 11 11 12 11 11
13 13 13 13 13 13 13 13 13 14 15 15 16 16 15 15 14 14 13 13 13 14 15 15 15 15 15 15 15 16 16 15 16 16 16 16 16 16 15 14 14 17 22 25 26 26 26 27 27 27 26 23 19 16 15 14 13 12 13 13 14 14 14 13 12 12 12 11 10
13 13 13 13 13 13 13 13 13 14 14 15 16 15 15 14 14 14 13 13 13 13 14 14 14 14 14 14 15 15 15 14 15 15 15 15 15 15 14 12 12 16 22 25 25 26 26 26 26 26 25 22 17 15 15 15 13 13 13 14 14 14 14 14 14 13 12 12 11
13 13 13 13 13 13 13 13 13 14 14 15 15 15 15 14 14 14 13 13 13 13 14 14 14 14 14 14 14 15 15 15 15 15 15 15 15 15 15 14 14 18 22 24 24 25 25 25 25 24 23 19 15 14 14 15 15 15 15 15 15 15 15 14 13 12 12 11 10
13 13 13 13 13 13 13 13 13 14 14 15 15 14 14 14 13 13 13 13 14 14 14 14 14 14 14 14 14 15 15 15 15 14 14 14 14 15 15 15 16 18 21 22 23 23 23 23 23 22 20 15 12 12 12 13 13 14 15 15 15 15 14 13 12 11 10 9 10
13 13 13 13 13 13 13 13 13 14 14 14 14 14 13 13 13 12 12 12 13 14 14 14 14 15 15 14 14 14 14 14 14 14 14 14 14 15 15 15 15 17 19 21 21 21 22 22 21 20 17 13 11 11 11 11 11 12 13 14 14 13 12 11 10 10 10 10 10
12 12 13 13 13 13 13 13 13 14 14 14 13 13 13 12 12 12 12 12 13 13 14 14 14 14 14 14 14 15 15 15 15 15 15 15 15 15 15 15 14 15 16 19 21 21 21 21 20 18 16 12 11 11 10 10 10 11 11 11 11 11 10 8 7 7 9 11 13
12 12 12 13 13 13 13 13 14 14 13 13 13 13 12 12 11 11 11 11 12 13 13 14 14 14 14 14 14 15 16 16 16 16 16 16 16 16 16 15 14 14 16 19 21 21 21 21 20 19 16 12 11 9 9 9 10 10 10 10 9 9 8 7 6 6 8 11 16
12 12 13 13 13 13 13 14 14 13 13 13 13 13 12 12 11 11 11 11 12 13 13 14 15 14 14 15 15 16 16 16 16 16 16 16 17 17 17 15 15 15 17 20 21 21 21 21 20 18 15 11 10 9 8 9 10 10 10 9 8 7 7 6 5 5 6 9 13
11 12 13 13 13 13 14 14 14 13 12 13 13 12 11 11 11 11 11 11 12 12 12 13 14 14 14 14 14 15 16 16 16 15 15 16 16 16 16 15 15 15 16 19 21 22 21 21 20 18 15 11 9 8 8 8 10 10 10 9 8 7 6 6 6 6 6 7 9
Wind_Direction
303 305 307 310 309 305 300 295 291 287 284 282 281 277 272 270 271 273 274 273 269 267 268 271 278 282 280 274 288 304 315 315 312 305 297 286 275 266 259 254 251 249 249 252 252 257 268 277 275 271 264 257 239 228 216 193 181 178 177 174 167 161 159 161 166 168 167 164 164
313 312 313 315 313 308 302 300 298 296 294 290 284 276 266 261 264 269 275 278 277 275 277 279 284 288 293 297 309 318 320 317 312 305 296 285 273 264 257 253 250 248 247 247 246 252 266 274 272 268 260 250 232 223 215 191 173 167 166 165 161 158 158 161 163 163 162 162 161
318 318 319 318 314 309 305 303 303 302 299 291 281 268 260 259 268 279 287 288 281 278 281 286 289 289 291 299 312 320 320 317 310 302 292 282 273 264 256 251 249 248 247 243 237 241 256 266 267 263 254 240 225 219 211 179 160 156 158 160 157 154 151 151 151 154 157 157 154
318 318 317 314 308 304 301 300 303 302 300 295 287 279 276 286 298 305 307 302 297 302 304 304 296 289 286 297 313 319 317 312 306 298 289 281 276 268 258 249 246 246 244 238 227 233 250 262 264 259 249 233 223 219 209 162 148 145 147 151 147 142 139 136 137 141 143 142 143
315 313 310 306 300 297 294 294 297 300 301 302 305 307 310 310 308 310 313 314 316 308 297 290 286 284 286 302 315 316 312 307 302 296 290 283 277 268 257 244 242 240 237 225 212 224 247 259 262 257 247 231 221 215 200 151 137 132 129 127 127 127 128 131 134 134 131 127 122
308 306 304 299 294 291 288 289 290 292 294 297 302 303 302 299 305 308 306 287 272 261 259 267 274 278 286 305 312 311 306 300 294 290 287 285 278 267 252 241 239 236 227 207 198 220 246 257 259 253 242 224 216 208 192 153 132 120 112 110 111 114 119 130 134 133 127 122 116
298 298 297 295 293 290 287 286 285 285 286 291 297 299 298 298 299 295 286 271 259 255 259 267 274 280 290 308 308 304 297 290 286 284 282 280 276 270 260 250 245 233 213 184 185 222 248 255 255 248 232 209 205 199 188 155 129 113 106 104 103 105 111 122 126 126 124 122 117
295 293 291 290 290 289 287 286 285 287 290 293 291 291 290 289 289 287 285 282 279 276 274 272 269 272 281 296 296 291 286 282 281 279 277 272 269 271 275 276 262 223 185 157 174 224 247 251 247 234 213 192 199 196 182 149 123 109 103 100 98 98 103 113 116 116 116 115 109
299 296 294 293 291 289 288 287 286 288 290 291 287 285 284 285 286 288 290 291 289 284 277 267 259 258 262 272 276 276 275 273 272 271 269 263 263 270 280 289 271 169 142 134 178 227 241 244 232 208 188 183 195 196 182 151 121 109 104 102 102 101 101 102 103 104 104 103 96
299 298 298 297 294 291 290 290 288 288 289 289 286 282 281 283 285 286 287 287 287 283 276 266 261 259 260 264 266 267 268 268 267 265 260 257 261 268 275 280 199 112 107 118 198 228 233 231 209 182 173 178 189 194 190 169 126 114 111 110 111 109 106 98 96 97 96 94 90
297 296 296 295 291 290 292 295 293 292 291 290 285 282 279 280 278 276 275 276 279 279 277 271 271 271 272 272 271 272 273 273 270 264 257 257 263 266 265 247 109 94 90 123 219 226 223 208 172 160 164 176 180 179 169 154 124 117 115 114 113 110 106 100 97 96 95 93 90
301 298 295 292 290 289 290 293 293 293 291 287 282 279 277 276 273 271 270 270 272 274 275 273 274 275 277 278 277 277 278 279 273 265 259 268 279 276 255 119 94 86 88 219 224 217 202 174 146 149 160 173 164 141 122 120 117 115 114 112 110 108 106 102 99 97 96 95 94
310 307 303 300 297 294 291 290 289 288 285 282 280 279 278 278 278 277 276 273 271 272 273 272 271 272 275 277 279 282 284 284 278 276 288 356 343 51 113 101 90 88 130 233 219 200 173 147 139 146 157 167 149 127 117 120 117 114 112 110 109 108 107 104 101 100 99 99 98
319 318 317 313 309 306 303 301 297 292 288 286 284 282 281 281 285 287 286 281 277 274 272 273 272 269 268 270 276 283 289 292 293 310 6 33 44 107 116 104 95 98 220 228 206 180 154 133 135 146 156 160 139 124 117 117 110 108 109 111 111 110 108 105 103 102 102 102 99
324 326 326 324 322 322 322 321 315 307 301 296 292 289 285 281 278 279 282 284 281 276 270 267 266 262 259 258 262 272 284 293 300 351 39 34 55 119 120 105 94 111 232 215 188 163 142 127 136 147 152 146 128 114 105 98 94 96 100 105 106 104 102 100 101 102 102 102 99
325 329 331 331 331 332 334 335 329 321 314 306 301 296 290 280 265 256 259 271 278 278 271 262 258 254 251 248 246 247 250 254 204 104 75 45 63 123 118 101 94 160 224 194 166 148 135 128 139 139 132 117 106 98 92 87 86 86 88 89 89 89 90 93 94 95 96 96 95
323 327 330 331 331 332 333 335 331 324 317 310 305 300 295 288 275 262 254 257 267 273 273 267 256 247 243 243 237 224 204 189 123 76 60 46 124 120 109 97 99 122 157 134 129 129 130 131 127 116 105 96 90 87 84 82 81 80 79 78 78 80 82 84 86 87 87 88 88
323 326 328 330 329 329 329 329 325 320 314 310 308 306 305 303 300 293 285 276 274 274 274 271 259 245 233 229 216 193 168 141 100 77 71 125 141 109 97 91 90 84 76 70 78 99 114 117 106 97 91 86 82 80 78 77 76 74 73 72 72 74 75 76 77 79 81 82 82
326 328 330 331 330 328 328 327 325 321 318 315 315 315 316 316 315 314 311 308 304 299 295 289 276 245 208 185 162 148 137 122 116 114 124 142 112 93 86 82 78 72 65 58 61 76 91 97 92 87 84 81 79 77 75 74 73 71 69 69 68 68 69 69 69 70 71 73 73
335 335 334 334 333 332 332 332 330 329 327 326 327 327 326 325 325 326 328 330 335 344 358 16 33 63 91 109 114 113 108 104 107 108 104 94 85 81 79 78 76 72 68 64 65 71 79 85 84 82 81 80 80 78 77 75 73 72 70 69 67 67 67 67 66 66 65 65 66
349 346 343 342 343 344 344 344 345 346 347 349 350 350 349 348 350 350 351 353 2 14 29 44 55 64 72 79 81 78 72 65 77 81 79 73 72 72 73 75 76 75 72 70 70 71 75 79 80 81 80 80 80 80 80 78 77 75 74 73 71 70 68 67 67 66 65 64 65
1 359 357 358 0 1 2 3 5 8 11 15 18 20 21 22 18 15 13 14 20 28 37 47 55 59 61 63 64 64 64 65 69 70 68 66 66 66 68 71 74 75 75 75 75 76 77 78 79 80 80 80 80 81 82 82 81 80 79 78 76 73 70 69 69 68 68 68 69
10 10 11 13 14 14 14 15 17 19 21 24 27 31 33 34 30 26 23 25 29 33 39 47 52 55 57 58 59 62 65 68 68 67 66 66 67 67 68 70 71 72 74 76 79 81 81 80 80 80 80 81 81 81 81 83 83 83 82 81 79 76 74 73 73 74 74 75 75
16 17 18 20 20 20 20 21 22 24 25 26 28 31 33 34 31 29 29 32 35 38 41 46 50 53 55 56 57 59 62 65 66 67 66 67 69 69 69 68 67 68 70 74 80 83 85 85 83 83 82 83 82 81 81 81 83 83 83 83 81 80 78 77 77 78 78 79 77
19 20 21 22 22 22 23 24 25 27 27 28 29 30 30 30 30 30 33 36 38 40 43 46 49 51 53 54 54 55 57 60 64 66 67 67 68 68 68 67 66 65 69 77 84 86 87 88 88 88 87 85 84 82 80 79 80 81 81 81 82 81 79 77 75 74 74 74 74
20 22 23 23 24 25 25 26 28 29 30 30 30 30 29 28 29 32 35 39 40 42 43 45 47 49 51 53 54 55 56 58 61 64 66 67 67 66 67 68 67 69 74 82 85 86 87 88 88 88 88 86 85 83 80 78 76 76 77 77 78 78 77 75 72 69 68 68 69
22 23 24 25 26 27 27 27 29 31 32 33 33 32 32 31 33 35 37 40 41 42 43 44 46 48 51 54 54 55 57 58 61 63 65 66 66 66 66 68 68 73 81 86 87 87 87 87 87 87 86 86 84 83 81 79 76 74 72 71 72 73 73 73 71 69 67 66 66
23 24 25 28 29 28 28 28 30 31 33 35 37 37 37 37 38 38 39 41 42 42 42 43 44 47 50 52 53 56 58 60 62 63 65 65 66 66 66 68 70 77 83 86 87 87 87 87 87 87 86 86 84 82 80 78 75 71 69 68 69 70 70 70 70 69 69 68 66
26 27 28 30 31 31 30 30 31 33 35 38 41 42 42 42 42 42 42 42 43 43 43 44 45 48 51 52 54 56 58 60 62 65 66 67 66 65 66 67 71 76 80 82 83 84 85 85 84 84 83 81 80 77 74 73 71 69 67 66 67 68 68 68 68 68 69 69 68
28 30 32 34 34 34 34 34 35 37 39 42 43 44 45 45 44 44 44 45 45 46 47 48 51 52 53 53 55 56 57 59 61 64 67 68 67 66 65 65 67 71 74 77 79 80 80 80 80 80 79 78 77 75 72 70 70 69 68 67 68 69 69 69 68 68 68 68 68
31 33 34 36 37 37 37 37 39 40 42 44 45 46 46 46 45 46 47 48 49 50 51 53 54 55 54 54 55 56 57 58 60 62 65 68 68 68 67 66 68 71 75 77 78 79 79 79 79 79 78 77 76 75 74 73 72 71 70 70 70 70 71 71 69 68 68 68 68
33 34 36 37 38 38 38 39 41 43 45 47 47 47 47 47 47 47 48 50 52 53 53 54 55 56 56 56 57 58 58 59 60 62 65 69 70 71 70 69 71 74 78 79 80 81 81 81 80 80 79 79 78 77 76 76 74 73 72 71 70 70 71 71 70 68 67 67 68
34 36 37 39 39 39 40 40 42 45 47 49 49 49 49 49 49 49 50 51 52 53 54 54 55 56 57 58 59 60 61 61 62 64 67 69 72 73 73 72 73 77 79 81 82 82 82 82 82 81 80 79 78 77 76 76 75 73 72 70 68 68 68 68 67 66 65 66 67
35 37 39 40 40 41 41 42 43 46 49 51 51 50 50 50 50 51 51 52 54 54 55 55 56 57 59 60 61 63 63 63 64 65 66 68 71 72 73 72 75 78 80 82 82 83 83 83 83 82 81 79 78 76 75 75 74 73 71 69 67 65 64 63 63 63 63 64 66
36 38 40 40 41 41 42 43 45 47 50 52 52 52 51 51 52 52 53 55 56 57 56 56 57 58 59 60 61 63 64 65 65 66 67 69 71 73 74 75 77 78 80 81 82 83 84 84 84 83 82 80 78 76 76 75 74 73 71 70 68 65 64 63 62 61 62 63 65
38 39 41 42 42 42 43 44 46 48 50 52 52 52 52 52 52 53 54 56 58 58 58 57 57 58 58 59 60 61 62 64 65 66 67 69 72 74 75 75 75 76 78 80 81 83 83 84 84 84 83 81 79 78 77 76 75 73 72 71 69 67 65 65 64 63 63 63 65
39 40 42 43 43 43 44 45 47 49 51 51 52 52 53 54 53 53 53 56 58 59 59 58 58 58 59 60 60 61 61 62 64 65 66 66 68 70 71 72 72 73 75 78 80 81 82 83 83 83 83 83 82 81 79 78 77 75 74 73 71 69 68 67 66 66 67 67 68
40 41 42 43 43 43 44 45 47 49 51 51 52 52 53 54 54 53 53 55 59 61 62 61 60 60 61 62 64 63 62 62 63 64 64 63 63 65 68 69 68 70 72 75 78 79 80 81 80 81 81 82 82 82 82 81 79 78 76 74 73 71 70 69 68 69 70 73 74
41 41 42 43 43 44 44 45 47 48 50 51 52 52 52 53 54 54 55 57 61 63 64 64 64 64 64 64 65 64 62 61 61 61 62 62 62 64 66 68 68 68 70 72 75 76 77 78 78 78 78 79 80 81 82 83 82 80 78 77 76 74 71 70 69 70 72 76 77
41 42 42 43 44 44 45 46 46 48 49 51 52 52 53 54 56 57 58 60 63 65 66 67 66 66 66 65 65 64 63 61 60 60 62 64 64 65 66 68 68 68 68 70 72 74 75 76 76 75 75 75 76 79 82 84 83 81 79 77 77 75 73 68 67 66 68 72 74
43 43 43 44 44 45 46 47 48 48 49 51 53 54 55 56 57 59 61 63 64 66 67 69 69 69 68 68 67 67 65 64 61 61 62 64 65 65 65 66 67 67 67 68 70 72 73 74 74 73 72 73 74 76 79 82 82 81 80 78 77 76 73 67 62 59 58 58 64